Regional Weather Roundup
Issued by NWS

Home | Current Version | Previous Version | Text Only | Print | Product List | Glossary Off
Versions: 1 2 3 4 5 6 7 8 9 10 11 12 13 14 15 16 17 18 19 20 21 22 23 24 25 26 27 28 29 30 31 32 33 34 35 36 37 38 39 40 41 42 43 44 45 46 47 48 49 50

000
ASUS45 KSLC 250910
RWRUT

UTAH REGIONAL WEATHER ROUNDUP
NATIONAL WEATHER SERVICE SALT LAKE CITY UT
300 AM MDT WED APR 25 2018

UTZ001>011-023>025-251000-

NORTHERN UTAH

CITY           SKY/WX    TMP DP  RH WIND       PRES   REMARKS
BRIGHAM CITY   CLEAR     54  16  22 E15G21    30.27S
HILL AFB       CLEAR     47  21  36 E20       30.26F
LOGAN          CLEAR     41  28  60 E6        30.29F
OGDEN          CLEAR     47  22  37 S7        30.25F
SALT LAKE CITY CLEAR     50  27  40 S7        30.25F
TOOELE VALLEY  PTCLDY    41  32  70 S8        30.25F
WENDOVER       PTCLDY    46  25  43 W5        30.24F
HEBER CITY       N/A     32  21  64 CALM      30.32S
WEST JORDAN    PTCLDY    42  29  59 SW3       30.27F

$$

UTZ011>015-024>027-251000-

CENTRAL/NORTHEAST UTAH

CITY           SKY/WX    TMP DP  RH WIND       PRES   REMARKS
PROVO AIRPORT  CLEAR     44  34  67 S3        30.28S
MOAB/CANYONLAN CLEAR     48  18  30 E9        30.28F
DELTA          CLEAR     43  30  61 NE6       30.25S
PRICE          CLEAR     43  19  38 N6        30.33S
ROOSEVELT      CLEAR     32  23  69 CALM      30.41F
VERNAL         CLEAR     38  21  50 N3        30.39S

$$

UTZ013>016-019>022-027-251000-

SOUTHERN UTAH

CITY           SKY/WX    TMP DP  RH WIND       PRES   REMARKS
BRYCE CANYON   CLEAR     31  18  58 CALM      30.33S
CEDAR CITY     CLEAR     40  25  55 CALM      30.24F
MILFORD        CLEAR     36  25  64 MISG      30.24F
ST GEORGE      SUNNY     64  23  21 N7        30.10R
HANKSVILLE     CLEAR     48  18  29 NW5       30.31S
BLANDING         N/A     48  11  22 NE8       30.29S

$$

REGIONAL REPORTS     COLORADO/ARIZONA

CITY           SKY/WX    TMP DP  RH WIND       PRES   REMARKS
CRAIG, CO      CLEAR     25  20  81 SE3       30.40F
GRAND JUNCTION CLEAR     41  20  43 NW3       30.33S
RIFLE, CO      CLEAR     33  24  69 CALM      30.37F
MONTROSE, CO   CLEAR     34  19  54 SE9       30.36S WCI  27
CORTEZ, CO     CLEAR     44  14  29 NW6       30.21F
COLORADO CITY    N/A     55  23  28 E6        30.20S
PAGE, AZ       CLEAR     62  17  17 E3        30.17R
GRAND CANYON   PTCLDY    34  15  46 CALM      30.24F
KINGMAN, AZ    CLEAR     57  20  23 SE5       30.04F
FLAGSTAFF, AZ  CLEAR     38  17  42 E6        30.25S WCI  33

$$

REGIONAL REPORTS    NEVADA/IDAHO/WYOMING

CITY           SKY/WX    TMP DP  RH WIND       PRES   REMARKS
LAS VEGAS, NV  PTCLDY    75  29  18 CALM      29.98S
ELY, NY        CLEAR     32  14  47 SE9       30.29F WCI  24
ELKO, NV       CLEAR     35  25  66 CALM      30.22F
POCATELLO, ID  CLEAR     34  29  82 NE3       30.28F
BURLEY, ID     CLEAR     34  28  79 SW5       30.23F WCI  30
FORT BRIDGER,    N/A     29  20  66 CALM      30.40S
EVANSTON, WY   CLEAR     33  20  58 E3        30.36S
ROCK SPRINGS,  CLEAR     27  16  63 E5        30.39F WCI  22
KEMMERER, WY   CLEAR     32  19  59 N8        30.39S WCI  25

$$



USA.gov is the U.S. government's official web portal to all federal, state and local government web resources and services.